Regional Weather Roundup
Issued by NWS

Home | Current Version | Previous Version | Text Only | Print | Product List | Glossary Off
Versions: 1 2 3 4 5 6 7 8 9 10 11 12 13 14 15 16 17 18 19 20 21 22 23 24 25 26 27

000
ASUS45 KGTF 242210
RWRMT
MONTANA HOURLY WEATHER ROUNDUP
NATIONAL WEATHER SERVICE GREAT FALLS MT
400 PM MDT FRI APR 24 2015

NOTE: "FAIR" INDICATES FEW OR NO CLOUDS BELOW 12000 FEET WITH NO
SIGNIFICANT WEATHER AND/OR OBSTRUCTIONS TO VISIBILITY.

MTZ001>007-043-242300-
WEST OF THE DIVIDE

CITY           SKY/WX    TMP DP  RH WIND       PRES   REMARKS
KALISPELL      CLOUDY    53  19  26 W14       29.70R
MISSOULA       CLOUDY    52  26  36 NW14      29.73R
BUTTE          RAIN      37  34  89 NW3       29.70S
DEER LODGE       N/A     46  36  66 NW7       29.73S
EUREKA           N/A     52  18  25 SW10      29.72R
HAMILTON         N/A     50  34  53 S5        29.72S
LIBBY            N/A     54  21  28 S6        29.75S
$$

MTZ008-052>055-242300-
SOUTHWEST MONTANA

CITY           SKY/WX    TMP DP  RH WIND       PRES   REMARKS
BOZEMAN        CLOUDY    54  37  52 W9        29.60R
DILLON         CLOUDY    47  41  80 N23       29.62R
$$

MTZ009-010-012-014-046-048-049-054-242300-
EAST SLOPES AND CENTRAL MONTANA

CITY           SKY/WX    TMP DP  RH WIND       PRES   REMARKS
CUT BANK       PTSUNNY   54  21  27 W21G32    29.63R
GREAT FALLS    CLOUDY    52  39  61 E8        29.63S
MALMSTROM AFB  CLOUDY    51  42  71 E6        29.64F
HELENA         CLOUDY    48  39  71 SW12      29.66S
$$

MTZ011-013-016-021-045-047-050-051-242300-
NORTH CENTRAL MONTANA

CITY           SKY/WX    TMP DP  RH WIND       PRES   REMARKS
HAVRE          CLOUDY    59  31  34 W9        29.62R
LEWISTOWN      PTSUNNY   60  36  40 N13       29.60F
CHINOOK          N/A     61  34  36 SW8       29.61S
FORT BENTON      N/A     54  37  54 E3        29.64F
$$

MTZ017>020-022>042-056>058-061-062-242300-
EASTERN PLAINS

CITY           SKY/WX    TMP DP  RH WIND       PRES   REMARKS
BAKER          SUNNY     71  31  22 SE13      29.57F
BILLINGS       MOSUNNY   71  28  20 E8        29.53F
GLASGOW        SUNNY     67  36  31 NW14G20   29.57F
JORDAN           N/A     70  35  27 N12       29.55S
LIVINGSTON     PTSUNNY   62  33  33 N10       29.54F
MILES CITY     CLOUDY    71  37  28 SE5       29.52S
SIDNEY         MOSUNNY   72  34  25 E5        29.58S
WOLF POINT     CLOUDY    71  37  28 E5        29.54F
BIG TIMBER       N/A     61  34  36 E7        29.56F
FORSYTH          N/A     72  37  28 CALM      29.52S
PLENTYWOOD       N/A     64  30  27 E7        29.60F
POPLAR           N/A     70  36  28 E5        29.56S
$$

REGIONAL REPORTS...DAKOTAS

CITY           SKY/WX    TMP DP  RH WIND       PRES   REMARKS
WILLISTON      SUNNY     69  31  24 E9        29.60F
MINOT          SUNNY     63  34  33 E10       29.64S
DICKINSON      SUNNY     68  33  27 NE12      29.57F
BEACH          FAIR      68  27  21 NE10      29.58F
CROSBY         MOCLDY    63  28  27 SE9       29.63S
WATFORD CITY   FAIR      66  30  26 SE10      29.58F
BISMARCK       SUNNY     67  39  35 E10       29.60S
GRAND FORKS    CLOUDY    54  39  57 SE13      29.73F
FARGO          CLOUDY    53  42  66 E13       29.71R
BUFFALO SD       N/A     69  31  24 E9G21     29.52F
RAPID CITY     LGT RAIN  57  47  69 NW16      29.56F
$$

REGIONAL REPORTS...WYOMING/IDAHO/WASHINGTON

CITY           SKY/WX    TMP DP  RH WIND       PRES   REMARKS
GILLETTE       PTSUNNY   65  36  34 SE12      29.57F
SHERIDAN       PTSUNNY   64  40  41 N18       29.56F
BUFFALO WY     PTSUNNY   65  34  31 W5        29.59F
CODY           PTSUNNY   63  32  31 NE8       29.56F
YELLOWSTONE LA   N/A     43  26  51 W9G20     29.74R
IDAHO FALLS    CLOUDY    59  38  45 SW20G29   29.65R
SALMON         CLOUDY    45  39  81 SW7       29.69S
BOISE          CLOUDY    57  36  45 N12       29.74F
SPOKANE        CLOUDY    51  27  39 S15       29.77S
$$

REGIONAL REPORTS...ALBERTA

CITY           SKY/WX    TMP DP  RH WIND       PRES   REMARKS
EDMONTON       CLOUDY    43  34  70 E16G22    29.73S
CALGARY        CLOUDY    52  30  43 E3G17     29.60F
LETHBRIDGE     PTSUNNY   55  25  30 SW14      29.61S
MEDICINE HAT   CLOUDY    61  30  31 W13G21    29.59F
$$

REGIONAL REPORTS...SASKATCHEWAN

CITY           SKY/WX    TMP DP  RH WIND       PRES   REMARKS
SWIFT CURRENT  MOSUNNY   61  28  29 W5        29.57F
REGINA         PTSUNNY   59  30  33 E8G20     29.66S
SASKATOON      PTSUNNY   57  32  38 SE12G21   29.70S
$$



USA.gov is the U.S. government's official web portal to all federal, state and local government web resources and services.